Regional Weather Roundup
Issued by NWS

Home | Current Version | Previous Version | Text Only | Print | Product List | Glossary On
Versions: 1 2 3 4 5 6 7 8 9 10 11 12 13 14 15 16 17 18 19 20 21 22 23 24 25 26 27 28 29 30 31 32 33 34 35 36 37 38 39 40 41 42 43 44 45 46 47 48 49 50
000
ASUS43 KLMK 310310
RWRKY
KENTUCKY REGIONAL WEATHER ROUNDUP
NATIONAL WEATHER SERVICE LOUISVILLE KY
1000 PM EST FRI JAN 30 2015

NOTE "FAIR" INDICATES FEW OR NO CLOUDS BELOW 12,000 FEET
WITH NO SIGNIFICANT WEATHER AND/OR OBSTRUCTIONS TO VISIBILITY.

KYZ001>023-026-027-061>063-070>075-310400-
WESTERN AND SOUTH CENTRAL KENTUCKY

CITY           SKY/WX    TMP DP  RH WIND       PRES   REMARKS
PADUCAH        PTCLDY    29  21  72 CALM      30.45F
HENDERSON      CLEAR     25  19  80 CALM      30.46F
OWENSBORO      CLEAR     29  21  71 CALM      30.47S
HOPKINSVILLE   CLEAR     30  21  68 N3        30.45S
BOWLING GREEN  CLEAR     34  19  54 CALM      30.46R
GLASGOW        CLEAR     27  21  79 CALM      30.44S
$$

KYZ024-025-028>034-038-045-046-053-310400-
NORTH CENTRAL KENTUCKY

CITY           SKY/WX    TMP DP  RH WIND       PRES   REMARKS
LOUISVILLE/SDF PTCLDY    30  16  56 E3        30.45F
LOUISVILLE/LOU CLEAR     30  16  56 E3        30.46S
FORT KNOX      FAIR      23  17  79 CALM      30.43S
$$

KYZ035>037-039>044-047>052-055>060-089>105-310400-
NORTHEAST KENTUCKY

CITY           SKY/WX    TMP DP  RH WIND       PRES   REMARKS
LEXINGTON      CLEAR     23  14  68 NE7       30.44S WCI  15
COVINGTON      CLEAR     24  14  65 CALM      30.43F
FRANKFORT      CLEAR     23  14  68 CALM      30.43F
$$

KYZ054-064>069-076>088-106>120-310400-
SOUTHEAST KENTUCKY

CITY           SKY/WX    TMP DP  RH WIND       PRES   REMARKS
JACKSON        CLEAR     24  13  62 CALM      30.41S
LONDON         CLEAR     27  13  55 CALM      30.41S
SOMERSET       CLEAR     28  16  59 CALM      30.45S
MIDDLESBORO    CLEAR     26  19  76 CALM      30.42S
MONTICELLO     CLEAR     24  18  78 CALM      30.46S
$$



USA.gov is the U.S. government's official web portal to all federal, state and local government web resources and services.